QPF
0.00 0.00 0.00 0.00 0.00 0.00 0.00 0.00 0.00 0.00 0.00 0.00 0.00 0.00 0.00 0.01 0.03 0.10 0.10 0.07 0.05 0.03 0.02 0.02 0.03 0.04 0.07 0.11 0.13 0.14 0.15 0.22 0.20 0.14 0.14 0.12 0.15 0.15 0.12 0.08 0.05 0.04 0.05 0.04
0.00 0.00 0.00 0.00 0.00 0.00 0.00 0.00 0.00 0.00 0.00 0.00 0.00 0.00 0.00 0.01 0.03 0.07 0.08 0.06 0.04 0.03 0.03 0.03 0.02 0.04 0.05 0.09 0.12 0.15 0.14 0.15 0.19 0.13 0.13 0.12 0.11 0.10 0.10 0.11 0.07 0.04 0.03 0.03
0.00 0.00 0.00 0.00 0.00 0.00 0.00 0.00 0.00 0.00 0.00 0.00 0.00 0.01 0.01 0.00 0.02 0.05 0.06 0.05 0.03 0.03 0.03 0.03 0.03 0.05 0.05 0.08 0.11 0.12 0.09 0.10 0.13 0.10 0.10 0.10 0.10 0.10 0.10 0.09 0.08 0.04 0.03 0.02
0.00 0.00 0.00 0.00 0.00 0.00 0.00 0.00 0.00 0.00 0.00 0.00 0.00 0.01 0.02 0.02 0.04 0.08 0.07 0.05 0.05 0.04 0.03 0.02 0.03 0.04 0.05 0.06 0.08 0.07 0.06 0.09 0.10 0.08 0.06 0.06 0.05 0.10 0.09 0.05 0.05 0.05 0.04 0.03
0.00 0.00 0.00 0.00 0.00 0.00 0.00 0.00 0.00 0.00 0.00 0.00 0.00 0.00 0.01 0.02 0.04 0.06 0.04 0.04 0.04 0.03 0.02 0.02 0.02 0.03 0.04 0.04 0.05 0.05 0.06 0.07 0.07 0.06 0.06 0.06 0.05 0.08 0.09 0.07 0.07 0.07 0.06 0.05
0.00 0.00 0.00 0.00 0.00 0.00 0.00 0.00 0.00 0.00 0.00 0.00 0.00 0.00 0.01 0.02 0.03 0.04 0.04 0.02 0.02 0.03 0.05 0.06 0.09 0.05 0.05 0.05 0.05 0.06 0.06 0.06 0.07 0.06 0.06 0.05 0.04 0.05 0.07 0.06 0.06 0.05 0.06 0.06
0.00 0.00 0.00 0.00 0.00 0.00 0.00 0.00 0.00 0.00 0.00 0.00 0.01 0.01 0.02 0.02 0.02 0.03 0.02 0.02 0.02 0.02 0.07 0.08 0.09 0.06 0.04 0.04 0.05 0.06 0.07 0.07 0.07 0.07 0.06 0.05 0.04 0.05 0.05 0.06 0.06 0.05 0.04 0.03
0.00 0.00 0.00 0.00 0.00 0.00 0.00 0.00 0.00 0.00 0.00 0.01 0.02 0.04 0.07 0.06 0.04 0.03 0.03 0.02 0.02 0.03 0.07 0.10 0.05 0.04 0.03 0.05 0.06 0.06 0.08 0.09 0.10 0.10 0.09 0.08 0.07 0.06 0.06 0.07 0.07 0.06 0.04 0.03
0.00 0.00 0.00 0.00 0.00 0.00 0.00 0.00 0.00 0.00 0.00 0.01 0.02 0.04 0.05 0.09 0.08 0.05 0.05 0.03 0.03 0.04 0.07 0.09 0.04 0.03 0.03 0.06 0.06 0.06 0.08 0.11 0.12 0.11 0.11 0.09 0.08 0.06 0.07 0.06 0.06 0.04 0.04 0.05
0.00 0.00 0.00 0.00 0.00 0.00 0.00 0.00 0.00 0.00 0.00 0.00 0.02 0.05 0.12 0.20 0.10 0.06 0.08 0.07 0.06 0.05 0.05 0.06 0.06 0.04 0.04 0.05 0.05 0.06 0.09 0.11 0.11 0.12 0.12 0.10 0.09 0.08 0.07 0.06 0.05 0.04 0.04 0.04
0.00 0.00 0.00 0.00 0.00 0.00 0.00 0.00 0.00 0.00 0.00 0.00 0.02 0.04 0.08 0.14 0.06 0.05 0.08 0.10 0.08 0.06 0.05 0.05 0.05 0.05 0.04 0.03 0.05 0.08 0.10 0.09 0.10 0.10 0.09 0.09 0.10 0.08 0.07 0.05 0.05 0.04 0.05 0.06
0.00 0.00 0.00 0.00 0.00 0.00 0.00 0.00 0.00 0.00 0.00 0.00 0.01 0.02 0.03 0.08 0.06 0.06 0.09 0.11 0.14 0.06 0.05 0.09 0.08 0.05 0.04 0.02 0.03 0.04 0.07 0.08 0.09 0.09 0.10 0.09 0.07 0.06 0.06 0.05 0.06 0.07 0.09 0.11
0.00 0.00 0.00 0.00 0.00 0.00 0.00 0.00 0.00 0.00 0.00 0.00 0.00 0.02 0.03 0.09 0.08 0.09 0.15 0.13 0.12 0.10 0.09 0.09 0.08 0.06 0.05 0.05 0.04 0.03 0.03 0.07 0.09 0.08 0.07 0.08 0.08 0.06 0.06 0.07 0.10 0.12 0.14 0.15
0.00 0.00 0.00 0.00 0.00 0.00 0.00 0.00 0.00 0.00 0.00 0.00 0.00 0.02 0.03 0.06 0.08 0.10 0.11 0.09 0.10 0.12 0.10 0.07 0.05 0.04 0.06 0.08 0.05 0.03 0.03 0.03 0.04 0.04 0.05 0.07 0.06 0.05 0.06 0.08 0.09 0.11 0.11 0.11
0.00 0.00 0.00 0.00 0.00 0.00 0.00 0.00 0.00 0.00 0.00 0.00 0.00 0.02 0.04 0.07 0.11 0.09 0.07 0.09 0.09 0.10 0.12 0.07 0.04 0.04 0.04 0.05 0.04 0.03 0.02 0.02 0.02 0.03 0.04 0.06 0.06 0.05 0.05 0.06 0.07 0.08 0.09 0.10
0.00 0.00 0.00 0.00 0.00 0.00 0.00 0.00 0.00 0.00 0.00 0.00 0.01 0.02 0.05 0.06 0.09 0.14 0.15 0.11 0.10 0.10 0.08 0.06 0.05 0.04 0.04 0.04 0.04 0.03 0.02 0.02 0.02 0.02 0.02 0.03 0.03 0.03 0.04 0.07 0.09 0.08 0.07 0.08
0.00 0.00 0.00 0.00 0.00 0.00 0.00 0.00 0.00 0.01 0.01 0.01 0.01 0.01 0.04 0.06 0.07 0.18 0.23 0.17 0.12 0.09 0.07 0.07 0.07 0.05 0.05 0.05 0.04 0.03 0.04 0.04 0.03 0.03 0.03 0.02 0.02 0.02 0.05 0.08 0.07 0.06 0.07 0.08
0.00 0.00 0.00 0.00 0.00 0.01 0.01 0.01 0.01 0.01 0.02 0.02 0.03 0.02 0.03 0.08 0.10 0.11 0.15 0.17 0.13 0.09 0.08 0.08 0.09 0.08 0.06 0.05 0.05 0.04 0.04 0.04 0.05 0.05 0.04 0.03 0.03 0.03 0.04 0.08 0.08 0.07 0.08 0.08
0.00 0.00 0.00 0.00 0.01 0.01 0.01 0.02 0.02 0.02 0.03 0.03 0.04 0.05 0.03 0.04 0.06 0.08 0.08 0.09 0.08 0.09 0.13 0.11 0.10 0.09 0.06 0.06 0.05 0.04 0.04 0.04 0.05 0.05 0.04 0.04 0.05 0.05 0.06 0.07 0.06 0.05 0.05 0.06
0.00 0.00 0.00 0.00 0.00 0.01 0.01 0.01 0.02 0.05 0.08 0.09 0.07 0.07 0.04 0.03 0.04 0.04 0.04 0.06 0.08 0.08 0.09 0.09 0.07 0.07 0.05 0.06 0.06 0.04 0.04 0.04 0.05 0.05 0.04 0.03 0.05 0.05 0.05 0.06 0.06 0.06 0.06 0.06
0.00 0.00 0.00 0.00 0.00 0.00 0.00 0.00 0.01 0.05 0.10 0.15 0.14 0.17 0.10 0.07 0.06 0.04 0.07 0.15 0.14 0.10 0.08 0.06 0.05 0.05 0.04 0.05 0.05 0.05 0.04 0.04 0.04 0.04 0.04 0.03 0.03 0.04 0.06 0.05 0.06 0.04 0.03 0.04
0.00 0.00 0.00 0.00 0.00 0.01 0.01 0.01 0.02 0.05 0.05 0.09 0.11 0.12 0.14 0.11 0.11 0.14 0.17 0.16 0.14 0.11 0.12 0.10 0.05 0.05 0.05 0.06 0.05 0.05 0.04 0.03 0.03 0.03 0.03 0.04 0.04 0.05 0.04 0.03 0.03 0.02 0.02 0.02
0.02 0.01 0.01 0.01 0.01 0.01 0.01 0.02 0.03 0.05 0.09 0.09 0.11 0.15 0.14 0.13 0.19 0.21 0.21 0.17 0.19 0.18 0.13 0.10 0.06 0.06 0.07 0.09 0.07 0.06 0.05 0.04 0.03 0.02 0.03 0.04 0.04 0.05 0.04 0.03 0.02 0.02 0.01 0.01
0.03 0.04 0.03 0.03 0.04 0.02 0.02 0.02 0.02 0.03 0.06 0.10 0.11 0.15 0.16 0.13 0.13 0.12 0.10 0.08 0.08 0.09 0.09 0.08 0.06 0.05 0.06 0.06 0.06 0.06 0.06 0.05 0.04 0.03 0.03 0.05 0.05 0.05 0.05 0.03 0.02 0.02 0.02 0.02
0.05 0.08 0.08 0.07 0.07 0.06 0.04 0.03 0.03 0.03 0.05 0.08 0.10 0.13 0.13 0.11 0.08 0.06 0.07 0.07 0.06 0.04 0.04 0.04 0.04 0.04 0.03 0.03 0.04 0.06 0.06 0.05 0.05 0.04 0.04 0.04 0.04 0.04 0.04 0.04 0.04 0.03 0.03 0.04
0.06 0.08 0.11 0.13 0.11 0.12 0.12 0.07 0.06 0.08 0.07 0.11 0.14 0.13 0.09 0.06 0.06 0.05 0.04 0.04 0.04 0.04 0.03 0.03 0.03 0.03 0.03 0.03 0.04 0.05 0.05 0.06 0.06 0.05 0.04 0.04 0.04 0.04 0.04 0.04 0.05 0.05 0.04 0.04
MSLP
1011.58 1012.38 1012.97 1013.32 1013.44 1013.37 1013.15 1012.81 1012.39 1011.90 1011.36 1010.78 1010.18 1009.58 1009.01 1008.53 1008.16 1007.94 1007.88 1007.99 1008.25 1008.63 1009.08 1009.57 1010.07 1010.55 1011.01 1011.45 1011.89 1012.32 1012.76 1013.19 1013.61 1014.00 1014.34 1014.63 1014.86 1015.05 1015.21 1015.35 1015.52 1015.71 1015.96 1016.25
1012.11 1012.69 1013.03 1013.17 1013.15 1013.03 1012.86 1012.66 1012.43 1012.17 1011.83 1011.39 1010.85 1010.23 1009.58 1008.96 1008.45 1008.11 1007.97 1008.05 1008.33 1008.76 1009.28 1009.82 1010.34 1010.80 1011.21 1011.57 1011.91 1012.27 1012.66 1013.09 1013.53 1013.97 1014.37 1014.71 1014.96 1015.13 1015.23 1015.30 1015.37 1015.49 1015.67 1015.94
1012.33 1012.65 1012.74 1012.68 1012.55 1012.42 1012.36 1012.36 1012.40 1012.41 1012.31 1012.05 1011.61 1010.99 1010.26 1009.51 1008.85 1008.37 1008.14 1008.17 1008.45 1008.91 1009.48 1010.06 1010.60 1011.04 1011.39 1011.67 1011.93 1012.21 1012.55 1012.96 1013.43 1013.91 1014.37 1014.76 1015.05 1015.22 1015.29 1015.30 1015.31 1015.35 1015.48 1015.71
1012.28 1012.34 1012.21 1011.99 1011.79 1011.73 1011.83 1012.09 1012.43 1012.74 1012.92 1012.86 1012.51 1011.90 1011.08 1010.19 1009.36 1008.72 1008.36 1008.31 1008.56 1009.03 1009.63 1010.24 1010.79 1011.21 1011.52 1011.73 1011.91 1012.11 1012.40 1012.79 1013.26 1013.78 1014.30 1014.74 1015.07 1015.27 1015.34 1015.32 1015.28 1015.27 1015.35 1015.54
1012.04 1011.88 1011.56 1011.25 1011.06 1011.11 1011.43 1011.97 1012.64 1013.27 1013.70 1013.82 1013.56 1012.92 1012.01 1010.95 1009.94 1009.11 1008.59 1008.44 1008.62 1009.08 1009.68 1010.32 1010.87 1011.29 1011.56 1011.72 1011.83 1011.96 1012.19 1012.54 1013.01 1013.55 1014.11 1014.60 1014.98 1015.22 1015.31 1015.30 1015.24 1015.21 1015.25 1015.41
1011.71 1011.38 1010.95 1010.61 1010.49 1010.70 1011.26 1012.10 1013.06 1013.97 1014.62 1014.88 1014.66 1013.99 1012.95 1011.71 1010.49 1009.47 1008.78 1008.50 1008.61 1009.03 1009.63 1010.28 1010.85 1011.27 1011.53 1011.65 1011.70 1011.77 1011.93 1012.24 1012.67 1013.21 1013.78 1014.31 1014.74 1015.01 1015.15 1015.16 1015.12 1015.09 1015.12 1015.26
1011.36 1010.92 1010.46 1010.15 1010.15 1010.54 1011.33 1012.43 1013.64 1014.76 1015.57 1015.91 1015.69 1014.93 1013.76 1012.34 1010.93 1009.72 1008.87 1008.46 1008.49 1008.87 1009.48 1010.14 1010.74 1011.18 1011.44 1011.54 1011.55 1011.56 1011.67 1011.90 1012.29 1012.79 1013.34 1013.88 1014.33 1014.64 1014.82 1014.87 1014.87 1014.85 1014.89 1015.03
1011.04 1010.56 1010.11 1009.88 1010.02 1010.58 1011.56 1012.85 1014.23 1015.47 1016.35 1016.71 1016.44 1015.60 1014.29 1012.73 1011.15 1009.80 1008.82 1008.32 1008.29 1008.65 1009.26 1009.95 1010.59 1011.06 1011.34 1011.45 1011.44 1011.41 1011.44 1011.60 1011.91 1012.34 1012.84 1013.35 1013.79 1014.12 1014.32 1014.42 1014.45 1014.47 1014.53 1014.67
1010.73 1010.26 1009.87 1009.74 1010.00 1010.70 1011.81 1013.19 1014.64 1015.92 1016.79 1017.11 1016.78 1015.85 1014.46 1012.80 1011.13 1009.69 1008.65 1008.11 1008.05 1008.41 1009.04 1009.77 1010.45 1010.98 1011.30 1011.42 1011.41 1011.34 1011.32 1011.40 1011.61 1011.94 1012.35 1012.79 1013.18 1013.49 1013.70 1013.82 1013.88 1013.93 1014.01 1014.16
1010.40 1009.98 1009.68 1009.64 1010.00 1010.77 1011.92 1013.31 1014.73 1015.94 1016.75 1016.99 1016.60 1015.63 1014.20 1012.54 1010.88 1009.45 1008.43 1007.90 1007.87 1008.25 1008.90 1009.67 1010.40 1010.97 1011.34 1011.49 1011.49 1011.41 1011.33 1011.33 1011.44 1011.66 1011.96 1012.29 1012.60 1012.86 1013.04 1013.15 1013.22 1013.28 1013.38 1013.54
1010.03 1009.68 1009.46 1009.50 1009.90 1010.68 1011.78 1013.08 1014.38 1015.48 1016.16 1016.32 1015.90 1014.94 1013.58 1012.01 1010.47 1009.16 1008.24 1007.79 1007.81 1008.23 1008.92 1009.71 1010.46 1011.07 1011.47 1011.67 1011.69 1011.61 1011.50 1011.43 1011.45 1011.55 1011.73 1011.93 1012.14 1012.31 1012.43 1012.50 1012.55 1012.61 1012.70 1012.87
1009.64 1009.36 1009.20 1009.29 1009.69 1010.40 1011.39 1012.53 1013.64 1014.56 1015.12 1015.21 1014.79 1013.92 1012.71 1011.34 1010.01 1008.91 1008.16 1007.84 1007.94 1008.40 1009.09 1009.88 1010.63 1011.25 1011.67 1011.90 1011.95 1011.88 1011.77 1011.67 1011.61 1011.62 1011.68 1011.77 1011.86 1011.92 1011.96 1011.97 1011.98 1012.01 1012.08 1012.22
1009.26 1009.05 1008.95 1009.05 1009.39 1009.99 1010.80 1011.72 1012.61 1013.33 1013.75 1013.79 1013.42 1012.70 1011.72 1010.63 1009.59 1008.76 1008.23 1008.06 1008.25 1008.73 1009.40 1010.15 1010.86 1011.44 1011.86 1012.10 1012.19 1012.16 1012.07 1011.97 1011.89 1011.83 1011.81 1011.80 1011.78 1011.75 1011.70 1011.64 1011.59 1011.57 1011.61 1011.72
1008.99 1008.84 1008.77 1008.84 1009.10 1009.54 1010.13 1010.80 1011.43 1011.94 1012.23 1012.24 1011.96 1011.43 1010.73 1009.96 1009.26 1008.72 1008.43 1008.42 1008.68 1009.15 1009.76 1010.42 1011.05 1011.57 1011.96 1012.21 1012.33 1012.36 1012.32 1012.26 1012.20 1012.13 1012.07 1012.00 1011.91 1011.80 1011.68 1011.55 1011.45 1011.38 1011.37 1011.44
1008.93 1008.82 1008.76 1008.78 1008.92 1009.17 1009.51 1009.90 1010.28 1010.57 1010.73 1010.72 1010.54 1010.21 1009.79 1009.37 1009.00 1008.76 1008.70 1008.83 1009.13 1009.57 1010.09 1010.63 1011.13 1011.56 1011.90 1012.15 1012.31 1012.41 1012.45 1012.47 1012.47 1012.45 1012.40 1012.32 1012.20 1012.06 1011.89 1011.72 1011.57 1011.47 1011.41 1011.43
1009.16 1009.07 1008.99 1008.94 1008.93 1008.97 1009.05 1009.16 1009.26 1009.33 1009.35 1009.31 1009.21 1009.07 1008.92 1008.81 1008.75 1008.78 1008.92 1009.16 1009.49 1009.87 1010.28 1010.68 1011.06 1011.39 1011.67 1011.91 1012.11 1012.29 1012.45 1012.58 1012.68 1012.74 1012.75 1012.71 1012.61 1012.47 1012.30 1012.13 1011.96 1011.84 1011.76 1011.74
1009.71 1009.62 1009.50 1009.35 1009.18 1008.99 1008.80 1008.61 1008.44 1008.28 1008.15 1008.06 1008.01 1008.02 1008.09 1008.23 1008.43 1008.70 1009.00 1009.33 1009.67 1010.00 1010.30 1010.58 1010.83 1011.06 1011.30 1011.54 1011.79 1012.06 1012.32 1012.58 1012.80 1012.98 1013.09 1013.12 1013.09 1013.00 1012.87 1012.72 1012.58 1012.46 1012.38 1012.34
1010.56 1010.44 1010.25 1009.98 1009.63 1009.21 1008.75 1008.28 1007.84 1007.45 1007.15 1006.98 1006.93 1007.03 1007.25 1007.59 1007.99 1008.43 1008.87 1009.28 1009.64 1009.93 1010.16 1010.34 1010.51 1010.68 1010.88 1011.13 1011.44 1011.79 1012.17 1012.55 1012.89 1013.19 1013.40 1013.54 1013.59 1013.58 1013.52 1013.44 1013.35 1013.28 1013.22 1013.20
1011.61 1011.43 1011.15 1010.75 1010.22 1009.58 1008.86 1008.12 1007.42 1006.81 1006.34 1006.05 1005.97 1006.10 1006.42 1006.88 1007.42 1008.00 1008.56 1009.04 1009.43 1009.73 1009.93 1010.08 1010.21 1010.35 1010.56 1010.83 1011.19 1011.61 1012.08 1012.56 1013.01 1013.40 1013.72 1013.95 1014.10 1014.18 1014.22 1014.22 1014.22 1014.22 1014.22 1014.24
1012.71 1012.46 1012.08 1011.53 1010.83 1009.99 1009.06 1008.09 1007.16 1006.34 1005.70 1005.30 1005.16 1005.27 1005.62 1006.15 1006.80 1007.48 1008.13 1008.70 1009.15 1009.49 1009.73 1009.90 1010.04 1010.21 1010.44 1010.75 1011.16 1011.63 1012.16 1012.70 1013.21 1013.67 1014.06 1014.37 1014.60 1014.77 1014.90 1015.01 1015.11 1015.20 1015.29 1015.38
1013.70 1013.38 1012.89 1012.23 1011.39 1010.39 1009.29 1008.14 1007.03 1006.05 1005.28 1004.76 1004.54 1004.62 1004.96 1005.52 1006.22 1006.97 1007.71 1008.36 1008.91 1009.34 1009.65 1009.89 1010.10 1010.33 1010.61 1010.96 1011.39 1011.90 1012.44 1013.00 1013.53 1014.02 1014.44 1014.79 1015.09 1015.33 1015.55 1015.76 1015.96 1016.17 1016.36 1016.54
1014.46 1014.06 1013.49 1012.74 1011.81 1010.72 1009.51 1008.26 1007.05 1005.97 1005.10 1004.50 1004.21 1004.23 1004.54 1005.10 1005.81 1006.61 1007.41 1008.16 1008.80 1009.34 1009.76 1010.11 1010.41 1010.72 1011.06 1011.45 1011.90 1012.40 1012.93 1013.46 1013.97 1014.44 1014.85 1015.22 1015.55 1015.85 1016.14 1016.44 1016.75 1017.06 1017.36 1017.65
1014.86 1014.41 1013.80 1013.01 1012.05 1010.94 1009.72 1008.45 1007.22 1006.11 1005.20 1004.55 1004.21 1004.18 1004.44 1004.97 1005.67 1006.48 1007.33 1008.14 1008.88 1009.53 1010.07 1010.53 1010.94 1011.33 1011.73 1012.15 1012.60 1013.07 1013.56 1014.03 1014.49 1014.90 1015.29 1015.64 1015.98 1016.31 1016.67 1017.04 1017.44 1017.85 1018.26 1018.65
1014.87 1014.40 1013.79 1013.03 1012.11 1011.06 1009.91 1008.71 1007.54 1006.47 1005.58 1004.92 1004.55 1004.47 1004.69 1005.16 1005.82 1006.62 1007.47 1008.33 1009.14 1009.87 1010.52 1011.09 1011.60 1012.06 1012.50 1012.94 1013.38 1013.81 1014.24 1014.64 1015.02 1015.38 1015.71 1016.04 1016.38 1016.74 1017.13 1017.57 1018.04 1018.54 1019.04 1019.53
1014.49 1014.04 1013.48 1012.79 1011.99 1011.07 1010.06 1009.01 1007.97 1007.00 1006.18 1005.56 1005.18 1005.07 1005.22 1005.63 1006.23 1006.98 1007.81 1008.67 1009.51 1010.31 1011.03 1011.68 1012.26 1012.79 1013.26 1013.71 1014.12 1014.51 1014.88 1015.22 1015.53 1015.83 1016.13 1016.43 1016.76 1017.14 1017.57 1018.05 1018.58 1019.14 1019.71 1020.27
1013.77 1013.37 1012.89 1012.34 1011.69 1010.96 1010.16 1009.31 1008.45 1007.63 1006.92 1006.36 1006.00 1005.86 1005.96 1006.28 1006.80 1007.48 1008.25 1009.09 1009.93 1010.75 1011.52 1012.22 1012.85 1013.41 1013.91 1014.36 1014.76 1015.11 1015.43 1015.72 1015.99 1016.25 1016.53 1016.82 1017.16 1017.55 1018.00 1018.52 1019.08 1019.68 1020.30 1020.90
Thickness
5810 5792 5780 5786 5791 5791 5791 5787 5787 5804 5827 5820 5810 5807 5813 5820 5818 5812 5808 5802 5796 5794 5794 5792 5788 5784 5777 5771 5766 5763 5759 5757 5754 5750 5748 5745 5743 5744 5744 5745 5746 5746 5746 5745
5787 5780 5796 5802 5802 5798 5792 5785 5789 5806 5824 5816 5804 5804 5813 5816 5816 5814 5809 5803 5797 5791 5789 5787 5784 5780 5775 5770 5766 5762 5759 5757 5754 5753 5750 5748 5746 5745 5745 5745 5745 5746 5745 5744
5775 5790 5807 5801 5795 5790 5790 5788 5794 5799 5810 5810 5800 5786 5796 5807 5813 5812 5810 5806 5800 5795 5789 5785 5782 5778 5773 5769 5766 5763 5759 5757 5755 5754 5750 5748 5745 5743 5741 5742 5743 5744 5744 5744
5781 5799 5801 5795 5793 5794 5781 5805 5808 5804 5789 5775 5787 5756 5779 5792 5797 5802 5802 5800 5797 5795 5791 5785 5781 5776 5773 5770 5767 5764 5760 5757 5755 5754 5750 5746 5743 5740 5740 5742 5742 5743 5744 5743
5780 5797 5794 5790 5799 5804 5798 5814 5809 5802 5786 5770 5773 5759 5765 5784 5783 5791 5798 5800 5798 5795 5791 5785 5781 5777 5774 5771 5767 5764 5761 5757 5756 5754 5751 5747 5744 5743 5742 5742 5741 5741 5742 5742
5787 5804 5803 5803 5813 5815 5815 5805 5792 5777 5763 5745 5760 5755 5754 5771 5783 5790 5796 5799 5797 5794 5789 5784 5780 5776 5772 5770 5767 5764 5760 5757 5756 5754 5751 5748 5745 5743 5741 5740 5739 5739 5740 5741
5772 5790 5806 5812 5800 5807 5802 5767 5739 5738 5726 5734 5759 5755 5758 5788 5801 5801 5797 5796 5797 5793 5787 5781 5776 5772 5770 5768 5766 5763 5760 5757 5756 5754 5751 5749 5747 5744 5742 5741 5739 5739 5738 5739
5749 5758 5793 5807 5799 5788 5788 5767 5734 5723 5721 5732 5753 5750 5770 5800 5808 5808 5803 5798 5794 5789 5785 5781 5777 5774 5771 5768 5765 5762 5760 5757 5755 5753 5751 5749 5748 5745 5743 5742 5741 5740 5740 5740
5747 5756 5797 5810 5815 5802 5783 5770 5766 5741 5735 5728 5738 5757 5777 5795 5796 5795 5793 5790 5787 5786 5784 5781 5778 5775 5771 5768 5765 5763 5759 5756 5755 5753 5751 5749 5747 5745 5743 5742 5741 5740 5741 5741
5763 5756 5781 5803 5810 5806 5798 5784 5753 5736 5720 5715 5731 5744 5750 5770 5777 5782 5783 5783 5783 5783 5782 5780 5777 5774 5772 5769 5766 5763 5760 5757 5755 5754 5752 5750 5747 5746 5744 5742 5740 5740 5740 5740
5770 5752 5764 5780 5783 5782 5787 5779 5761 5739 5733 5719 5716 5736 5777 5777 5781 5781 5781 5783 5783 5781 5780 5777 5775 5773 5771 5769 5766 5763 5760 5756 5754 5753 5752 5749 5747 5746 5744 5741 5740 5740 5739 5738
5771 5751 5743 5764 5791 5803 5793 5781 5762 5741 5736 5730 5724 5739 5788 5787 5786 5785 5783 5783 5782 5781 5780 5777 5774 5771 5768 5766 5764 5761 5759 5756 5755 5753 5751 5748 5746 5744 5742 5740 5739 5738 5737 5735
5771 5747 5732 5741 5761 5784 5785 5784 5774 5758 5742 5729 5724 5743 5783 5784 5782 5784 5784 5782 5781 5779 5777 5773 5770 5768 5766 5764 5762 5759 5758 5755 5754 5752 5749 5746 5744 5742 5739 5738 5736 5735 5734 5732
5780 5747 5738 5733 5745 5767 5773 5781 5779 5758 5737 5735 5742 5751 5768 5773 5776 5779 5781 5782 5779 5776 5775 5771 5766 5766 5765 5763 5761 5758 5756 5755 5753 5750 5746 5743 5741 5739 5736 5734 5732 5731 5730 5728
5770 5748 5754 5759 5770 5776 5775 5777 5779 5767 5758 5748 5753 5757 5768 5775 5779 5780 5780 5779 5777 5772 5771 5771 5767 5764 5763 5760 5758 5756 5754 5752 5750 5747 5743 5740 5738 5736 5733 5730 5728 5726 5725 5723
5755 5748 5751 5754 5769 5772 5769 5775 5778 5775 5773 5766 5763 5759 5776 5779 5779 5777 5777 5776 5773 5769 5769 5768 5766 5762 5760 5758 5756 5754 5751 5749 5747 5743 5739 5737 5734 5731 5728 5725 5723 5720 5718 5716
5739 5738 5730 5731 5752 5756 5744 5763 5769 5769 5771 5768 5756 5763 5773 5771 5774 5774 5774 5774 5771 5770 5767 5764 5762 5760 5758 5757 5755 5751 5749 5746 5742 5738 5735 5732 5729 5725 5722 5719 5715 5712 5710 5708
5734 5726 5717 5719 5732 5718 5740 5772 5775 5769 5768 5773 5772 5772 5773 5773 5773 5774 5775 5772 5767 5767 5765 5763 5760 5757 5756 5754 5752 5749 5745 5741 5737 5732 5729 5726 5723 5719 5716 5712 5708 5705 5703 5700
5736 5725 5711 5704 5706 5718 5745 5763 5766 5758 5753 5768 5769 5769 5767 5768 5764 5761 5767 5769 5766 5764 5763 5761 5759 5755 5751 5748 5746 5743 5739 5735 5730 5726 5723 5721 5718 5714 5709 5705 5701 5698 5695 5691
5727 5722 5708 5700 5700 5701 5729 5760 5772 5761 5736 5760 5766 5764 5762 5762 5745 5747 5759 5761 5761 5760 5759 5756 5753 5750 5745 5742 5740 5736 5731 5727 5723 5720 5717 5714 5711 5707 5703 5699 5694 5691 5687 5683
5702 5701 5698 5694 5694 5706 5738 5757 5762 5730 5728 5753 5759 5760 5758 5754 5751 5751 5754 5754 5753 5752 5750 5749 5744 5740 5738 5735 5733 5726 5722 5718 5716 5714 5711 5707 5703 5700 5696 5691 5687 5683 5679 5674
5685 5684 5685 5685 5685 5695 5734 5743 5734 5732 5746 5749 5750 5750 5748 5747 5747 5746 5745 5744 5742 5741 5740 5739 5735 5731 5729 5727 5724 5718 5712 5710 5708 5706 5702 5698 5694 5692 5687 5682 5677 5673 5670 5665
5679 5681 5682 5685 5690 5709 5724 5730 5736 5741 5740 5742 5741 5740 5740 5737 5735 5735 5734 5733 5731 5732 5730 5728 5725 5720 5717 5716 5714 5709 5705 5702 5699 5695 5690 5687 5683 5680 5676 5672 5668 5663 5660 5656
5674 5683 5680 5682 5692 5705 5714 5721 5728 5733 5735 5737 5737 5735 5733 5727 5725 5724 5723 5722 5720 5721 5719 5717 5714 5710 5707 5705 5703 5701 5697 5694 5690 5685 5679 5675 5672 5668 5663 5660 5657 5654 5649 5645
5663 5670 5669 5672 5683 5693 5701 5708 5714 5721 5726 5725 5726 5727 5724 5720 5715 5713 5711 5710 5710 5709 5707 5706 5703 5700 5697 5695 5692 5690 5687 5684 5679 5674 5669 5664 5660 5656 5651 5646 5642 5641 5638 5636
5655 5658 5659 5663 5675 5679 5685 5696 5704 5707 5710 5712 5713 5712 5712 5711 5707 5704 5700 5700 5700 5698 5697 5694 5692 5689 5687 5684 5681 5679 5677 5674 5669 5663 5658 5654 5649 5644 5640 5635 5628 5625 5624 5622